Change the Weather History Date:

Sunday, February 23, 2014

  Actual Average Record
Temperature  
Mean Temperature 33 °F 37 °F  
Max Temperature 43 °F 52 °F 75 °F (2002)
Min Temperature 23 °F 23 °F -13 °F (1960)
Degree Days  
Heating Degree Days 32 28  
Month to date heating degree days 814 710  
Since 1 July heating degree days 3936 3967  
Cooling Degree Days 0 0  
Month to date cooling degree days 0 0  
Year to date cooling degree days 0 0  
Moisture  
Dew Point 22 °F    
Average Humidity 67    
Maximum Humidity 88    
Minimum Humidity 45    
Precipitation  
Precipitation 0.00 in 0.02 in 0.20 in (2005)
Month to date precipitation 0.21 0.29  
Year to date precipitation 0.30 0.58  
Sea Level Pressure  
Sea Level Pressure 30.07 in    
Wind  
Wind Speed 13 mph (ESE)    
Max Wind Speed 23 mph    
Max Gust Speed 29 mph    
Visibility 10 miles    
Events      
T = Trace of Precipitation, MM = Missing Value Source: NWS Daily Summary

Daily Weather History Graph

Daily Weather History Graph

Search for Another Location

Airport or City:

Trip Planner

Search our weather history database for the weather conditions in past years. The results will help you decide how hot, cold, wet, or windy it might be!

Date:

Astronomy

Feb. 23, 2014 Rise Set
Actual Time 6:33 AM MST 5:41 PM MST
Civil Twilight 6:07 AM MST 6:08 PM MST
Nautical Twilight 5:36 AM MST 6:38 PM MST
Astronomical Twilight 5:06 AM MST 7:09 PM MST
Moon 1:31 AM MST (2/23) 11:48 AM MST (2/23)
Length of Visible Light 12h 00m
Length of Day
11h 07m
Last Quarter, 38% of the Moon is Illuminated
Feb 23
Last Quarter
Mar 1
New
Mar 8
First Quarter
Mar 16
Full
Mar 23
Last Quarter

Hourly Weather History & Observations

Time (MST) Temp. Windchill Dew Point Humidity Pressure Visibility Wind Dir Wind Speed Gust Speed Precip Events Conditions
12:53 AM 28.9 °F 16.5 °F 21.0 °F 72% 29.96 in 10.0 mi ENE 18.4 mph - N/A   Clear
1:53 AM 27.0 °F 14.7 °F 21.0 °F 78% 29.99 in 10.0 mi ENE 16.1 mph - N/A   Mostly Cloudy
2:06 AM 27.0 °F 13.2 °F 21.0 °F 78% 30.01 in 10.0 mi ENE 20.7 mph - N/A   Overcast
2:53 AM 27.0 °F 15.2 °F 21.0 °F 78% 30.00 in 10.0 mi ENE 15.0 mph - N/A   Overcast
3:53 AM 27.0 °F 17.3 °F 21.0 °F 78% 30.04 in 10.0 mi East 10.4 mph - N/A   Overcast
4:51 AM 26.6 °F 16.8 °F 21.2 °F 80% 30.09 in 10.0 mi ESE 10.4 mph - N/A   Overcast
4:53 AM 27.0 °F 17.3 °F 21.9 °F 81% 30.07 in 10.0 mi ESE 10.4 mph - N/A   Overcast
5:53 AM 26.1 °F 18.4 °F 21.9 °F 84% 30.10 in 10.0 mi SE 6.9 mph - N/A   Overcast
6:53 AM 26.1 °F 18.4 °F 21.9 °F 84% 30.12 in 10.0 mi SE 6.9 mph - N/A   Overcast
7:53 AM 27.0 °F 21.6 °F 21.9 °F 81% 30.14 in 10.0 mi SE 4.6 mph - N/A   Overcast
8:42 AM 27.0 °F 21.6 °F 21.9 °F 81% 30.13 in 10.0 mi SE 4.6 mph - N/A   Overcast
8:53 AM 27.0 °F 19.5 °F 21.9 °F 81% 30.15 in 10.0 mi South 6.9 mph - N/A   Overcast
9:53 AM 28.0 °F 22.8 °F 21.9 °F 78% 30.15 in 10.0 mi Variable 4.6 mph - N/A   Overcast
10:53 AM 30.0 °F 23.2 °F 23.0 °F 75% 30.15 in 10.0 mi SSE 6.9 mph - N/A   Overcast
11:43 AM 33.1 °F 30.0 °F 24.1 °F 70% 30.09 in 10.0 mi Variable 3.5 mph - N/A   Mostly Cloudy
11:53 AM 34.0 °F 28.0 °F 24.1 °F 67% 30.11 in 10.0 mi SE 6.9 mph - N/A   Mostly Cloudy
12:01 PM 35.1 °F 29.3 °F 24.1 °F 64% 30.08 in 10.0 mi SSE 6.9 mph - N/A   Scattered Clouds
12:53 PM 37.0 °F 29.3 °F 24.1 °F 59% 30.08 in 10.0 mi ESE 11.5 mph - N/A   Clear
1:53 PM 39.9 °F 32.5 °F 24.1 °F 53% 30.06 in 10.0 mi East 12.7 mph - N/A   Clear
2:53 PM 41.0 °F 32.2 °F 24.1 °F 51% 30.03 in 10.0 mi East 18.4 mph - N/A   Clear
3:53 PM 42.1 °F 33.6 °F 24.1 °F 49% 30.01 in 10.0 mi East 18.4 mph - N/A   Clear
4:53 PM 42.1 °F 32.8 °F 23.0 °F 47% 29.99 in 10.0 mi East 21.9 mph - N/A   Clear
5:53 PM 39.0 °F 29.0 °F 21.9 °F 50% 30.02 in 10.0 mi East 20.7 mph - N/A   Clear
6:53 PM 37.9 °F 27.6 °F 21.9 °F 53% 30.02 in 10.0 mi East 20.7 mph - N/A   Clear
7:53 PM 34.0 °F 22.7 °F 21.0 °F 59% 30.05 in 10.0 mi East 19.6 mph - N/A   Clear
8:53 PM 26.1 °F 12.7 °F 19.9 °F 78% 30.10 in 10.0 mi East 18.4 mph - N/A   Clear
9:53 PM 25.0 °F 11.3 °F 21.0 °F 85% 30.11 in 10.0 mi ESE 18.4 mph - N/A   Clear
10:53 PM 24.1 °F 13.7 °F 21.0 °F 88% 30.11 in 10.0 mi ESE 10.4 mph - N/A   Clear
11:53 PM 23.0 °F 14.7 °F 19.9 °F 88% 30.09 in 10.0 mi NE 6.9 mph - N/A   Clear